User: anonymous   Login
Location: Malvern Link
(52.1333°N, 2.3000°W)
Time: 21:45:34
(UTC+00:00)
Language:

Cosmos 1634 Rocket - Orbit

View from above orbital plane
View from above orbital plane
View from above satellite
View from above satellite

Ground track
Ground track

The orbit data is extracted from the following two-line orbital elements,

1 15598U 85022B   21210.17379907 -.00000012  00000-0 -27353-4 0  9993
2 15598  82.9351  69.9217 0021144 223.5483 255.0207 13.76593412827246
Epoch (UTC): 29 July 2021 04:10:16
Eccentricity: 0.0021144
inclination: 82.9351°
perigee height: 960 km
apogee height: 991 km
right ascension of ascending node: 69.9217°
argument of perigee: 223.5483°
revolutions per day: 13.76593412
mean anomaly at epoch: 255.0207°
orbit number at epoch: 82724

The dashed part of the orbit path shows where the satellite is in the earth's shadow,  

DLR